Time,TemperatureF,DewpointF,PressureIn,WindDirection,WindDirectionDegrees,WindSpeedMPH,WindSpeedGustMPH,Humidity,HourlyPrecipIn,Conditions,Clouds,dailyrainin,SolarRadiationWatts/m^2,SoftwareType,DateUTC
2013-10-28 00:04:00,38.0,27.0,-100.00,NNE,29,5.0,12.0,65,0.00,,,0.00,0.000000,,2013-10-28 05:04:00,
2013-10-28 00:43:00,38.0,30.0,-100.00,NNE,32,8.0,14.0,73,0.00,,,0.00,0.000000,,2013-10-28 05:43:00,
2013-10-28 00:53:00,38.0,30.0,-100.00,NNE,32,8.0,14.0,73,0.00,,,0.00,0.000000,,2013-10-28 05:53:00,
2013-10-28 01:03:00,38.0,30.0,-100.00,NNE,32,8.0,14.0,73,0.00,,,0.00,0.000000,,2013-10-28 06:03:00,
2013-10-28 01:43:00,36.0,27.0,-100.00,NNE,33,7.0,20.0,70,0.00,,,0.00,0.000000,,2013-10-28 06:43:00,
2013-10-28 01:52:00,36.0,27.0,-100.00,NNE,33,7.0,20.0,70,0.00,,,0.00,0.000000,,2013-10-28 06:52:00,
2013-10-28 02:02:00,36.0,27.0,-100.00,NNE,33,7.0,20.0,70,0.00,,,0.00,0.000000,,2013-10-28 07:02:00,
2013-10-28 02:42:00,35.0,26.0,-100.00,NE,36,7.0,15.0,68,0.00,,,0.00,0.000000,,2013-10-28 07:42:00,
2013-10-28 02:52:00,35.0,26.0,-100.00,NE,36,7.0,15.0,68,0.00,,,0.00,0.000000,,2013-10-28 07:52:00,
2013-10-28 03:02:00,35.0,26.0,-100.00,NE,36,7.0,15.0,68,0.00,,,0.00,0.000000,,2013-10-28 08:02:00,
2013-10-28 03:42:00,33.0,25.0,-100.00,NNE,29,4.0,12.0,73,0.00,,,0.00,0.000000,,2013-10-28 08:42:00,
2013-10-28 03:52:00,33.0,25.0,-100.00,NNE,29,4.0,12.0,73,0.00,,,0.00,0.000000,,2013-10-28 08:52:00,
2013-10-28 04:02:00,33.0,25.0,-100.00,NNE,29,4.0,12.0,73,0.00,,,0.00,0.000000,,2013-10-28 09:02:00,
2013-10-28 04:43:00,33.0,25.0,-100.00,NNE,33,6.0,11.0,73,0.00,,,0.00,0.000000,,2013-10-28 09:43:00,
2013-10-28 04:53:00,33.0,25.0,-100.00,NNE,33,6.0,11.0,73,0.00,,,0.00,0.000000,,2013-10-28 09:53:00,
2013-10-28 05:03:00,33.0,25.0,-100.00,NNE,33,6.0,11.0,73,0.00,,,0.00,0.000000,,2013-10-28 10:03:00,
2013-10-28 05:43:00,31.0,22.0,-100.00,NE,37,8.0,15.0,68,0.00,,,0.00,0.000000,,2013-10-28 10:43:00,
2013-10-28 05:53:00,31.0,22.0,-100.00,NE,37,8.0,15.0,68,0.00,,,0.00,0.000000,,2013-10-28 10:53:00,
2013-10-28 06:03:00,31.0,22.0,-100.00,NE,37,8.0,15.0,68,0.00,,,0.00,0.000000,,2013-10-28 11:03:00,
2013-10-28 06:42:00,30.0,21.0,-100.00,NNE,32,5.0,14.0,68,0.00,,,0.00,0.000000,,2013-10-28 11:42:00,
2013-10-28 06:52:00,30.0,21.0,-100.00,NNE,32,5.0,14.0,68,0.00,,,0.00,0.000000,,2013-10-28 11:52:00,
2013-10-28 07:02:00,30.0,21.0,-100.00,NNE,32,5.0,14.0,68,0.00,,,0.00,0.000000,,2013-10-28 12:02:00,
2013-10-28 07:42:00,28.0,20.0,-100.00,NNE,30,4.0,11.0,70,0.00,,,0.00,0.000000,,2013-10-28 12:42:00,
2013-10-28 07:52:00,28.0,20.0,-100.00,NNE,30,4.0,11.0,70,0.00,,,0.00,0.000000,,2013-10-28 12:52:00,
2013-10-28 08:01:00,28.0,20.0,-100.00,NNE,30,4.0,11.0,70,0.00,,,0.00,0.000000,,2013-10-28 13:01:00,
2013-10-28 08:42:00,27.0,19.0,-100.00,NNE,23,3.0,6.0,71,0.00,,,0.00,3.000000,,2013-10-28 13:42:00,
2013-10-28 08:52:00,27.0,19.0,-100.00,NNE,23,3.0,6.0,71,0.00,,,0.00,3.000000,,2013-10-28 13:52:00,
2013-10-28 09:02:00,27.0,19.0,-100.00,NNE,23,3.0,6.0,71,0.00,,,0.00,3.000000,,2013-10-28 14:02:00,
2013-10-28 09:42:00,31.0,21.0,-100.00,North,357,5.0,8.0,65,0.00,,,0.00,76.000000,,2013-10-28 14:42:00,
2013-10-28 09:52:00,31.0,21.0,-100.00,North,357,5.0,8.0,65,0.00,,,0.00,76.000000,,2013-10-28 14:52:00,
2013-10-28 10:02:00,31.0,21.0,-100.00,North,357,5.0,8.0,65,0.00,,,0.00,76.000000,,2013-10-28 15:02:00,
2013-10-28 10:43:00,35.0,22.0,-100.00,NNE,13,5.0,9.0,58,0.00,,,0.00,228.000000,,2013-10-28 15:43:00,
2013-10-28 10:53:00,35.0,22.0,-100.00,NNE,13,5.0,9.0,58,0.00,,,0.00,228.000000,,2013-10-28 15:53:00,
2013-10-28 11:03:00,35.0,22.0,-100.00,NNE,13,5.0,9.0,58,0.00,,,0.00,228.000000,,2013-10-28 16:03:00,
2013-10-28 11:43:00,39.0,22.0,-100.00,ENE,60,9.0,18.0,50,0.00,,,0.00,374.000000,,2013-10-28 16:43:00,
2013-10-28 11:53:00,39.0,22.0,-100.00,ENE,60,9.0,18.0,50,0.00,,,0.00,374.000000,,2013-10-28 16:53:00,
2013-10-28 12:02:00,39.0,22.0,-100.00,ENE,60,9.0,18.0,50,0.00,,,0.00,374.000000,,2013-10-28 17:02:00,
2013-10-28 12:42:00,39.0,18.0,-100.00,NE,54,9.0,19.0,43,0.00,,,0.00,455.000000,,2013-10-28 17:42:00,
2013-10-28 12:52:00,39.0,18.0,-100.00,NE,54,9.0,19.0,43,0.00,,,0.00,455.000000,,2013-10-28 17:52:00,
2013-10-28 13:02:00,39.0,18.0,-100.00,NE,54,9.0,19.0,43,0.00,,,0.00,455.000000,,2013-10-28 18:02:00,
2013-10-28 13:42:00,40.0,18.0,-100.00,ENE,70,8.0,15.0,40,0.00,,,0.00,474.000000,,2013-10-28 18:42:00,
2013-10-28 13:52:00,40.0,18.0,-100.00,ENE,70,8.0,15.0,40,0.00,,,0.00,474.000000,,2013-10-28 18:52:00,
2013-10-28 14:01:00,40.0,18.0,-100.00,ENE,70,8.0,15.0,40,0.00,,,0.00,474.000000,,2013-10-28 19:01:00,
2013-10-28 14:42:00,42.0,18.0,-100.00,ENE,70,5.0,14.0,37,0.00,,,0.00,481.000000,,2013-10-28 19:42:00,
2013-10-28 14:52:00,42.0,18.0,-100.00,ENE,70,5.0,14.0,37,0.00,,,0.00,481.000000,,2013-10-28 19:52:00,
2013-10-28 15:02:00,42.0,18.0,-100.00,ENE,70,5.0,14.0,37,0.00,,,0.00,481.000000,,2013-10-28 20:02:00,
2013-10-28 15:42:00,43.0,17.0,-100.00,NE,42,6.0,12.0,34,0.00,,,0.00,435.000000,,2013-10-28 20:42:00,
2013-10-28 15:52:00,43.0,17.0,-100.00,NE,42,6.0,12.0,34,0.00,,,0.00,435.000000,,2013-10-28 20:52:00,
2013-10-28 16:02:00,43.0,17.0,-100.00,NE,42,6.0,12.0,34,0.00,,,0.00,435.000000,,2013-10-28 21:02:00,
2013-10-28 16:43:00,43.0,18.0,-100.00,NE,41,4.0,14.0,36,0.00,,,0.00,324.000000,,2013-10-28 21:43:00,
2013-10-28 16:54:00,43.0,18.0,-100.00,NE,41,4.0,14.0,36,0.00,,,0.00,324.000000,,2013-10-28 21:54:00,
2013-10-28 17:04:00,43.0,18.0,-100.00,NE,41,4.0,14.0,36,0.00,,,0.00,324.000000,,2013-10-28 22:04:00,
2013-10-28 17:43:00,40.0,24.0,-100.00,North,6,6.0,10.0,52,0.00,,,0.00,172.000000,,2013-10-28 22:43:00,
2013-10-28 17:53:00,40.0,24.0,-100.00,North,6,6.0,10.0,52,0.00,,,0.00,172.000000,,2013-10-28 22:53:00,
2013-10-28 18:03:00,40.0,24.0,-100.00,North,6,6.0,10.0,52,0.00,,,0.00,172.000000,,2013-10-28 23:03:00,
2013-10-28 18:43:00,36.0,23.0,-100.00,North,2,4.0,9.0,59,0.00,,,0.00,39.000000,,2013-10-28 23:43:00,
2013-10-28 18:52:00,36.0,23.0,-100.00,North,2,4.0,9.0,59,0.00,,,0.00,39.000000,,2013-10-28 23:52:00,
2013-10-28 19:01:00,36.0,23.0,-100.00,North,2,4.0,9.0,59,0.00,,,0.00,39.000000,,2013-10-29 00:01:00,
2013-10-28 19:42:00,34.0,24.0,-100.00,NNE,22,4.0,9.0,67,0.00,,,0.00,0.000000,,2013-10-29 00:42:00,
2013-10-28 19:52:00,34.0,24.0,-100.00,NNE,22,4.0,9.0,67,0.00,,,0.00,0.000000,,2013-10-29 00:52:00,
2013-10-28 20:01:00,34.0,24.0,-100.00,NNE,22,4.0,9.0,67,0.00,,,0.00,0.000000,,2013-10-29 01:01:00,
2013-10-28 21:44:00,30.0,25.0,-100.00,NNE,29,3.0,7.0,81,-99.99,,,0.00,0.000000,,2013-10-29 02:44:00,
2013-10-28 21:54:00,30.0,25.0,-100.00,NNE,29,3.0,7.0,81,-99.99,,,0.00,0.000000,,2013-10-29 02:54:00,
2013-10-28 22:03:00,30.0,25.0,-100.00,NNE,29,3.0,7.0,81,-99.99,,,0.00,0.000000,,2013-10-29 03:03:00,
2013-10-28 22:40:00,-999.0,-99.9,-100.00,NNE,31,3.0,7.0,85,0.00,,,0.00,0.000000,,2013-10-29 03:40:00,
2013-10-28 22:48:00,28.0,24.0,-100.00,NNE,31,3.0,7.0,85,0.00,,,0.00,0.000000,,2013-10-29 03:48:00,
2013-10-28 22:55:00,28.0,24.0,-100.00,NNE,31,3.0,7.0,85,0.00,,,0.00,0.000000,,2013-10-29 03:55:00,
2013-10-28 23:04:00,28.0,24.0,-100.00,NNE,31,3.0,7.0,85,0.00,,,0.00,0.000000,,2013-10-29 04:04:00,
2013-10-28 23:44:00,27.0,24.0,-100.00,NE,48,2.0,5.0,89,0.00,,,0.00,0.000000,,2013-10-29 04:44:00,
2013-10-28 23:57:00,27.0,24.0,-100.00,NE,48,2.0,5.0,89,0.00,,,0.00,0.000000,,2013-10-29 04:57:00,